Location: Newark
(7.0858°N, 171.3717°E)
Time: 02:43:05
(UTC+00:00)

Transit 2A - Pass Details

Date: 30 November 2020
Orbit: 598 x 960 km, 66.7° (Epoch: 20 January)

Event Time Altitude Azimuth Distance (km) Brightness Sun altitude
Rises 02:55:07 0° 159° (SSE) 3,550 9.6 42.9°
Reaches altitude 10° 02:59:19 10° 132° (SE) 2,655 8.8 42.1°
Maximum altitude 03:01:52 13° 107° (ESE) 2,482 8.5 41.6°
Drops below altitude 10° 03:04:26 10° 83° (E) 2,683 8.5 41.1°
Sets 03:08:41 0° 56° (ENE) 3,627 9.0 40.3°
